Phuket, Thailand

6:09 AM ICT on February 23, 2017 (GMT +0700)
Phuket International

Weather History for VTSP - October, 2012

Change the Weather History Date:

Monday, October 15, 2012

  Actual Average Record
Temperature  
Mean Temperature 80 °F -  
Max Temperature 86 °F 88 °F 96 °F (2000)
Min Temperature 73 °F 76 °F 69 °F (1997)
Cooling Degree Days 14    
Growing Degree Days 30 (Base 50)    
Moisture  
Dew Point 74 °F    
Average Humidity 85    
Maximum Humidity 96    
Minimum Humidity 65    
Precipitation  
Precipitation 2.32 in 0.35 in - ()
Sea Level Pressure  
Sea Level Pressure 29.89 in    
Wind  
Wind Speed 3 mph ()    
Max Wind Speed 9 mph    
Max Gust Speed -    
Visibility 4.9 miles    
Events Rain , Thunderstorm    
Averages and records for this station are not official NWS values.
T = Trace of Precipitation, MM = Missing Value Source: Averaged Metar Reports

Daily Weather History Graph

Daily Weather History Graph

Search for Another Location

Airport or City:

Trip Planner

Search our weather history database for the weather conditions in past years. The results will help you decide how hot, cold, wet, or windy it might be!

Date:

Astronomy

Oct. 15, 2012 Rise Set
Actual Time 6:14 AM ICT 6:10 PM ICT
Civil Twilight 5:52 AM ICT 6:31 PM ICT
Nautical Twilight 5:28 AM ICT 6:56 PM ICT
Astronomical Twilight 5:04 AM ICT 7:20 PM ICT
Moon 5:44 AM ICT (10/15) 5:58 PM ICT (10/15)
Length of Visible Light 12h 38m
Length of Day
11h 56m
Waning Crescent, 0% of the Moon is Illuminated
Oct 15
Waning Crescent
Oct 15
New
Oct 22
First Quarter
Oct 30
Full
Nov 7
Last Quarter

Hourly Weather History & Observations

Time (ICT) Temp. Heat Index Dew Point Humidity Pressure Visibility Wind Dir Wind Speed Gust Speed Precip Events Conditions
12:00 AM 75.2 °F - 73.4 °F 94% 29.92 in 3.1 mi WNW 9.2 mph - N/A Rain Rain
12:30 AM 75.2 °F - 73.4 °F 94% 29.89 in 4.3 mi NW 8.1 mph - N/A Rain Light Rain
1:00 AM 76 °F - 74 °F 93% 29.85 in 5 mi Calm Calm - - Thunderstorm Light Thunderstorm
1:00 AM 75.2 °F - 73.4 °F 94% 29.89 in 5.0 mi Calm Calm - N/A   Mostly Cloudy
1:30 AM 75.2 °F - 73.4 °F 94% 29.89 in 5.0 mi Calm Calm - N/A   Mostly Cloudy
2:00 AM 75.2 °F - 73.4 °F 94% 29.89 in 3.1 mi Calm Calm - N/A Rain Light Rain
2:30 AM 75.2 °F - 73.4 °F 94% 29.86 in 3.1 mi East 5.8 mph - N/A Rain Light Rain
3:00 AM 75.2 °F - 73.4 °F 94% 29.86 in 3.1 mi Calm Calm - N/A Rain Light Rain
5:00 AM 75.2 °F - 73.4 °F 94% 29.89 in 5.0 mi Calm Calm - N/A   Mostly Cloudy
5:30 AM 75.2 °F - 73.4 °F 94% 29.89 in 5.0 mi Calm Calm - N/A   Mostly Cloudy
6:00 AM 75.2 °F - 73.4 °F 94% 29.89 in 5.0 mi Calm Calm - N/A   Mostly Cloudy
6:30 AM 75.2 °F - 73.4 °F 94% 29.89 in 5.0 mi Calm Calm - N/A   Mostly Cloudy
7:00 AM 76 °F - 75 °F 96% 29.86 in 6 mi Calm Calm - -   Mist
7:00 AM 75.2 °F - 73.4 °F 94% 29.92 in 5.0 mi Calm Calm - N/A   Mostly Cloudy
7:30 AM 75.2 °F - 73.4 °F 94% 29.92 in 5.0 mi Calm Calm - N/A   Mostly Cloudy
8:00 AM 77.0 °F - 75.2 °F 94% 29.92 in 5.0 mi Calm Calm - N/A   Mostly Cloudy
8:30 AM 80.6 °F 86.2 °F 75.2 °F 84% 29.95 in 5.0 mi Calm Calm - N/A   Mostly Cloudy
9:00 AM 80.6 °F 85.4 °F 73.4 °F 79% 29.95 in 5.0 mi Variable 2.3 mph - N/A   Mostly Cloudy
9:30 AM 82.4 °F 89.5 °F 75.2 °F 79% 29.95 in 5.0 mi Variable 2.3 mph - N/A   Mostly Cloudy
10:00 AM 82.4 °F 89.5 °F 75.2 °F 79% 29.95 in 5.0 mi Variable 3.5 mph - N/A   Mostly Cloudy
10:30 AM 84.2 °F 92.3 °F 75.2 °F 74% 29.95 in 5.0 mi Variable 1.2 mph - N/A   Mostly Cloudy
11:00 AM 82.4 °F 89.5 °F 75.2 °F 79% 29.95 in 5.0 mi ENE 6.9 mph - N/A   Mostly Cloudy
11:30 AM 84.2 °F 92.3 °F 75.2 °F 74% 29.95 in 5.0 mi ENE 5.8 mph - N/A   Mostly Cloudy
12:00 PM 84.2 °F 90.9 °F 73.4 °F 70% 29.92 in 5.0 mi East 5.8 mph - N/A   Mostly Cloudy
12:30 PM 84.2 °F 90.9 °F 73.4 °F 70% 29.92 in 5.0 mi ENE 5.8 mph - N/A   Mostly Cloudy
1:00 PM 86 °F - 76 °F 65% 29.88 in 6 mi Calm Calm - -   Scattered Clouds
1:00 PM 86.0 °F 95.1 °F 75.2 °F 70% 29.89 in 5.0 mi ENE 3.5 mph - N/A   Mostly Cloudy
1:30 PM 86.0 °F 93.4 °F 73.4 °F 66% 29.86 in 5.0 mi East 5.8 mph - N/A   Mostly Cloudy
2:00 PM 86.0 °F 93.4 °F 73.4 °F 66% 29.86 in 5.0 mi East 6.9 mph - N/A   Mostly Cloudy
2:30 PM 86.0 °F 93.4 °F 73.4 °F 66% 29.83 in 5.0 mi East 6.9 mph - N/A   Mostly Cloudy
3:00 PM 84.2 °F 90.9 °F 73.4 °F 70% 29.83 in 5.0 mi East 6.9 mph - N/A   Mostly Cloudy
3:30 PM 84.2 °F 92.3 °F 75.2 °F 74% 29.83 in 5.0 mi East 8.1 mph - N/A   Mostly Cloudy
4:00 PM 84.2 °F 92.3 °F 75.2 °F 74% 29.83 in 5.0 mi East 4.6 mph - N/A   Mostly Cloudy
4:30 PM 82.4 °F 89.5 °F 75.2 °F 79% 29.83 in 5.0 mi East 4.6 mph - N/A   Mostly Cloudy
5:00 PM 82.4 °F 89.5 °F 75.2 °F 79% 29.83 in 5.0 mi East 4.6 mph - N/A   Mostly Cloudy
5:30 PM 82.4 °F 88.2 °F 73.4 °F 74% 29.83 in 5.0 mi Variable 2.3 mph - N/A   Mostly Cloudy
6:00 PM 80.6 °F 86.2 °F 75.2 °F 84% 29.83 in 5.0 mi Calm Calm - N/A   Mostly Cloudy
6:30 PM 80.6 °F 85.4 °F 73.4 °F 79% 29.83 in 5.0 mi Variable 2.3 mph - N/A   Mostly Cloudy
7:00 PM 82 °F - 78 °F 83% 29.80 in 5 mi Calm Calm - -   Mist
7:00 PM 78.8 °F - 75.2 °F 89% 29.83 in 5.0 mi Calm Calm - N/A   Mostly Cloudy
7:30 PM 78.8 °F - 75.2 °F 89% 29.86 in 5.0 mi Variable 1.2 mph - N/A   Mostly Cloudy
8:00 PM 78.8 °F - 75.2 °F 89% 29.89 in 5.0 mi Calm Calm - N/A   Mostly Cloudy
8:30 PM 77.0 °F - 75.2 °F 94% 29.89 in 5.0 mi Calm Calm - N/A   Mostly Cloudy
9:00 PM 78.8 °F - 75.2 °F 89% 29.92 in 5.0 mi Calm Calm - N/A   Mostly Cloudy
9:30 PM 77.0 °F - 75.2 °F 94% 29.92 in 5.0 mi Calm Calm - N/A   Mostly Cloudy
10:00 PM 77.0 °F - 75.2 °F 94% 29.92 in 5.0 mi Calm Calm - N/A   Mostly Cloudy
10:30 PM 77.0 °F - 75.2 °F 94% 29.92 in 5.0 mi Calm Calm - N/A   Mostly Cloudy
11:00 PM 77.0 °F - 75.2 °F 94% 29.92 in 5.0 mi Calm Calm - N/A   Mostly Cloudy
11:30 PM 77.0 °F - 75.2 °F 94% 29.92 in 5.0 mi Calm Calm - N/A   Mostly Cloudy